Location: Bo�i?i
(45.1431°N, 16.1331°E)
Time: 23:28:52
(UTC+00:00)

Daily predictions for brighter satellites

Satellite Brightness Start Highest point End
(mag) Time Altitude Azimuth Time Altitude Azimuth Time Altitude Azimuth
CZ-2C R/B 3.3 16:56:27 10° SSE 17:02:16 78° ENE 17:07:57 10° N
Cosmos 2084 4.0 17:00:07 10° S 17:04:01 39° ESE 17:08:02 10° NE
CZ-4 R/B 4.5 17:00:13 10° SSE 17:04:19 64° ENE 17:08:27 10° N
Cosmos 1689 Rocket 3.4 17:05:13 10° NE 17:07:25 20° E 17:09:36 10° SE
Cosmos 1408 Rocket 4.1 17:04:57 10° SSW 17:09:21 66° W 17:13:49 10° N
Cosmos 292 Rocket 4.0 17:05:02 10° S 17:09:37 50° ESE 17:14:13 10° NNE
Cosmos 2219 4.2 17:04:45 10° NW 17:10:12 52° WSW 17:15:36 10° S
BREEZE-M DEB (TANK) 4.4 17:07:36 10° SSW 17:12:42 18° SSE 17:15:25 10° ESE
Cosmos 1242 Rocket 2.5 17:11:26 10° N 17:14:59 88° E 17:18:33 10° S
Cosmos 1818 3.7 17:10:08 10° NW 17:15:39 87° SW 17:21:07 10° SSE
YAOGAN 1 2.7 17:15:19 10° SSE 17:19:31 54° ENE 17:23:45 10° N
Timation 1 Rocket 4.4 17:13:45 10° NNW 17:19:46 87° ENE 17:25:44 10° SSE
COSMO-SKYMED 1 2.8 17:15:39 10° N 17:20:00 77° WNW 17:24:20 10° SSW
Okean-O 2.7 17:16:09 10° SSE 17:20:28 54° ENE 17:24:48 10° N
Helios 1A Rocket 3.5 17:17:20 10° SE 17:21:01 34° ENE 17:24:43 10° N
Cosmos 1500 Rocket 3.5 17:17:07 10° S 17:21:28 87° E 17:25:49 10° N
FALCON 9 DEB 3.3 17:18:57 10° SW 17:22:02 46° SE 17:24:43 13° ENE
Cosmos 1515 Rocket 4.4 17:18:01 10° NNW 17:22:20 55° W 17:26:39 10° S
Cosmos 1980 Rocket 2.4 17:17:25 10° S 17:22:53 52° ESE 17:28:23 10° NE
Cosmos 220 Rocket 4.3 17:19:22 10° S 17:23:18 41° ESE 17:27:19 10° NE
SL-4 R/B 1.7 17:20:53 10° WSW 17:24:29 74° NNW 17:27:44 11° ENE
Meteor 2-17 Rocket 4.4 17:19:55 10° S 17:25:59 70° E 17:32:03 10° NNE
FALCON 9 DEB 2.9 17:27:23 10° SW 17:30:31 68° SE 17:32:59 15° ENE
Lacrosse 5 rocket 1.4 17:26:12 10° NW 17:30:39 89° NNE 17:34:52 10° SE
Sich 1 3.4 17:26:46 10° SSE 17:30:52 43° E 17:35:03 10° NNE
Cosmos 2322 Rocket 3.7 17:30:09 10° SE 17:32:52 14° E 17:33:02 14° E
Cosmos 1452 Rocket 3.9 17:27:48 10° SSW 17:33:01 67° WNW 17:38:16 10° NNE
Cosmos 44 3.6 17:29:36 10° NW 17:35:06 88° NE 17:40:30 10° SE
Cosmos 2082 4.0 17:30:13 10° NNW 17:35:50 73° WSW 17:41:25 10° SSE
CZ-4B R/B 2.7 17:34:58 10° N 17:37:50 38° WNW 17:40:40 10° SW
SJ-11-01 4.2 17:33:50 10° SSE 17:38:30 78° ENE 17:43:12 10° N
Cosmos 724 4.3 17:33:43 10° SSW 17:39:43 76° ESE 17:45:55 10° NE
Cosmos 1867 3.6 17:35:25 10° SSW 17:40:44 60° ESE 17:46:08 10° NE
Cosmos 1707 Rocket 3.9 17:38:18 10° N 17:42:33 44° ENE 17:46:44 10° SSE
Cosmos 1741 Rocket 4.5 17:38:50 10° NNW 17:44:08 67° WSW 17:49:23 10° S
Cosmos 1633 Rocket 3.7 17:43:00 10° SSE 17:46:55 33° E 17:50:54 10° NNE
Cosmos 1697 Rocket 3.4 17:41:39 10° SW 17:47:13 57° WNW 17:52:49 10° NNE
Cosmos 1437 2.8 17:44:39 10° N 17:47:26 41° ENE 17:49:16 18° SE
USA 234 3.2 17:42:36 10° NE 17:49:12 82° SE 17:55:45 10° SW
ERS-2 2.0 17:46:16 10° NNE 17:49:57 86° ESE 17:53:36 10° SSW
Cosmos 1110 Rocket 4.0 17:44:50 10° SSW 17:50:09 84° ESE 17:55:31 10° NNE
SL-16 R/B 3.1 17:47:20 10° SSE 17:51:55 26° ESE 17:55:07 16° ENE
DMSP B5D1-3 4.5 17:51:22 10° NNE 17:56:33 84° ESE 18:01:42 10° SSW
PSLV R/B 4.3 17:54:43 10° N 17:58:49 67° WNW 18:02:52 10° SSW
Cosmos 2369 4.3 17:53:30 10° SW 17:59:04 58° WNW 18:04:42 10° NNE
SAR-Lupe-4 3.6 17:55:33 10° NNE 17:59:09 80° WNW 18:02:42 10° SSW
NOSS 2-1 (E) 4.3 17:55:01 10° NW 18:00:10 79° NE 18:07:30 10° SE
USA 305 2.9 17:56:12 10° SW 18:00:30 86° NW 18:03:06 23° NE
Cosmos 2154 Rocket 4.2 17:57:24 10° SSE 18:03:15 45° E 18:09:07 10° NNE
Nadezhda 3 Rocket 4.3 17:57:41 10° N 18:03:46 46° ENE 18:09:52 10° SSE
Ariane Rocket 3.7 18:03:12 26° E 18:04:46 31° ENE 18:09:15 10° N
Resurs 01 Rocket 3.8 18:07:04 11° NE 18:07:04 11° NE 18:07:26 10° NNE
SeaSat 1 2.9 18:00:35 10° NNE 18:05:28 61° WNW 18:10:19 10° SW
CZ-4 R/B 2.9 18:02:12 10° SSW 18:05:47 37° W 18:09:24 10° NNW
DMSP B5D2-2 4.3 18:00:52 10° NNE 18:05:56 47° E 18:10:56 10° S
USA 307 2.9 18:04:01 10° WSW 18:08:18 81° NW 18:10:34 27° NE
Cosmos 2263 Rocket 2.1 18:04:13 10° NNW 18:09:47 69° ENE 18:14:09 17° SE
Cosmos 2074 Rocket 3.9 18:05:58 10° S 18:12:13 81° E 18:18:31 10° N
FALCON 9 DEB 3.3 18:11:31 10° WSW 18:14:40 59° NNW 18:15:24 44° NNE
USA 306 3.0 18:10:25 10° WSW 18:14:41 71° NNW 18:16:44 30° NE
USA 308 3.1 18:14:19 10° WSW 18:18:35 70° NNW 18:20:26 32° NE
Cosmos 1470 Rocket 4.4 18:14:42 10° SSE 18:20:13 32° NE 18:23:05 10° NNE
Cosmos 1515 3.8 18:18:48 10° N 18:22:18 52° ENE 18:22:18 52° ENE
ERBS 4.3 18:19:58 10° SSW 18:21:02 17° S 18:21:02 17° S
Cosmos 2184 Rocket 4.0 18:18:42 10° S 18:24:52 86° W 18:31:05 10° N
H-2A R/B 3.7 18:20:31 10° SSW 18:25:29 37° W 18:30:33 10° NNW
ARGOS 4.0 18:20:56 10° S 18:26:12 52° W 18:31:31 10° NNW
SJ-6B 2.9 18:28:38 58° E 18:28:45 58° ENE 18:32:48 10° N
Meteor 2-4 Rocket 4.1 18:23:44 10° N 18:29:09 41° ENE 18:29:44 39° E
OBJECT-B 3.2 18:32:13 14° N 18:32:13 14° N 18:32:50 10° N
Cosmos 1295 Rocket 4.4 18:23:43 10° S 18:29:53 60° E 18:36:01 10° NNE
SL-08 RB Rocket 4.3 18:26:40 10° S 18:31:04 57° W 18:35:31 10° NNW
Cosmos 1271 Rocket 3.2 18:28:26 10° NNW 18:32:07 57° W 18:35:17 13° S
COSMOS 2455 3.5 18:27:27 10° NW 18:33:18 53° WSW 18:39:06 10° S
FALCON 9 DEB 4.0 18:30:28 10° W 18:33:28 39° NNW 18:33:29 39° NNW
Meteor 1-25 Rocket 4.3 18:27:45 10° S 18:33:35 85° WNW 18:39:21 10° N
GP-B 3.0 18:33:07 55° SE 18:33:49 64° E 18:38:13 10° N
Meteor 1-18 Rocket 4.2 18:28:13 10° N 18:34:09 70° ENE 18:38:04 22° SSE
MetOp-A 4.0 18:32:13 14° SSE 18:36:48 86° ENE 18:42:12 10° NNW
Cosmos 1461 3.1 18:32:34 10° SSW 18:37:13 62° ESE 18:37:22 62° ESE
Cosmos 1602 3.7 18:33:58 10° S 18:37:49 82° W 18:41:45 10° N
CZ-2C R/B 3.1 18:32:38 10° N 18:38:08 63° WNW 18:43:30 10° SSW
Okean 1 3.1 18:34:49 10° N 18:38:49 83° ENE 18:38:49 83° ENE
Cosmos 44 Rocket 4.0 18:36:20 10° NNW 18:41:15 40° NE 18:41:15 40° NE
Cosmos 1666 Rocket 4.3 18:37:46 10° SSW 18:42:02 53° WNW 18:46:17 10° N
ATLAS 5 CENTAUR R/B 4.4 18:31:32 10° WSW 18:43:09 34° NW 18:46:35 13° NNE
Cosmos 1862 Rocket 3.6 18:39:20 10° N 18:43:50 80° W 18:45:35 37° S
Meteor 2-12 Rocket 4.3 18:39:37 10° S 18:45:38 76° E 18:51:43 10° NNE
BREEZE-M DEB (TANK) 3.0 18:44:16 10° WNW 18:46:16 40° NNW 18:46:16 40° NNW
Cosmos 1844 Rocket 3.6 18:42:47 10° N 18:47:04 32° NE 18:47:04 32° NE
Cosmos 2341 Rocket 4.1 18:41:49 10° SSE 18:47:55 53° E 18:54:02 10° NNE
Gbstr 26 Del rocket 3.5 18:43:42 10° WSW 18:48:15 69° NNW 18:49:30 50° NE
Cosmos 962 Rocket 4.4 18:43:46 10° S 18:49:48 61° E 18:55:57 10° NNE
Cosmos 1486 Rocket 3.9 18:44:31 10° NNW 18:49:49 76° ENE 18:50:25 67° ESE
SL-4 R/B 3.7 19:01:19 10° WNW 19:03:19 24° NW 19:03:19 24° NW
Cosmos 1980 Rocket 4.1 19:02:19 10° WSW 19:07:10 28° NW 19:12:04 10° N
Lacrosse 5 rocket 4.0 19:06:53 10° W 19:09:10 14° WSW 19:11:00 11° SSW
Cosmos 2322 Rocket 2.4 19:10:27 10° SSW 19:15:03 62° SSW 19:15:03 62° SSW
Cosmos 968 Rocket 4.0 19:13:27 10° NNW 19:18:35 55° WSW 19:19:11 52° SW
USA 234 4.1 19:29:23 31° NNE 19:31:54 43° NNW 19:38:00 10° W
SL-16 R/B 2.9 19:30:09 10° SW 19:35:39 51° WNW 19:37:13 40° NNW
Resurs 01 Rocket 4.1 19:44:38 17° NNW 19:44:38 17° NNW 19:45:37 10° NNW
Ariane Rocket 4.3 19:43:24 36° WSW 19:43:38 36° W 19:48:20 10° NNW
